FW3105 Weather Reports


time (UTC)temp
F
wind
direction
speed
knots
gust
knots
rain 1hr
in
rain 24hr
in
rain mn
in
humidity
%
barometer
mb
20260906214541 85 302 6.1 13.0 0.00 0.00 0.00 27 1003.3
20260906213037 86 342 2.6 11.3 0.00 0.00 0.00 25 1003.5
20260906211540 87 326 1.7 8.7 0.00 0.00 0.00 23 1003.7
20260906210034 88 320 2.6 10.4 0.00 0.00 0.00 21 1003.9
20260906204554 88 309 3.5 7.8 0.00 0.00 0.00 20 1004.0
20260906203033 88 310 0.9 12.2 0.00 0.00 0.00 20 1004.4
20260906201530 88 300 3.5 13.0 0.00 0.00 0.00 20 1004.5
20260906200028 88 287 1.7 9.6 0.00 0.00 0.00 20 1004.6
20260906194528 88 308 1.7 9.6 0.00 0.00 0.00 20 1004.7
20260906193024 88 325 6.1 10.4 0.00 0.00 0.00 19 1004.9
20260906191527 87 336 2.6 9.6 0.00 0.00 0.00 21 1005.1
20260906190019 87 316 1.7 7.8 0.00 0.00 0.00 22 1005.3
20260906184515 85 210 2.6 7.8 0.00 0.00 0.00 25 1005.8
20260906183016 85 202 0.9 5.2 0.00 0.00 0.00 25 1006.1
20260906181508 84 201 0.9 3.5 0.00 0.00 0.00 27 1006.5
20260906180005 82 201 1.7 4.3 0.00 0.00 0.00 27 1007.0
20260906174600 81 201 0.9 4.3 0.00 0.00 0.00 29 1007.3
20260906173101 81 200 2.6 4.3 0.00 0.00 0.00 28 1007.4
20260906171557 79 194 0.9 2.6 0.00 0.00 0.00 31 1007.6
20260906170058 78 200 0.9 1.7 0.00 0.00 0.00 34 1007.6
20260906164544 76 200 0.0 3.5 0.00 0.00 0.00 35 1007.6
20260906163044 75 200 0.9 2.6 0.00 0.00 0.00 37 1007.8
20260906161536 73 200 0.0 2.6 0.00 0.00 0.00 43 1008.0
20260906160031 72 76 0.0 3.5 0.00 0.00 0.00 43 1007.8
20260906154528 71 71 0.9 4.3 0.00 0.00 0.00 47 1007.7
20260906153028 70 66 0.0 2.6 0.00 0.00 0.00 50 1007.8
20260906151526 68 62 0.9 2.6 0.00 0.00 0.00 54 1008.0
20260906150030 66 62 0.9 4.3 0.00 0.00 0.00 54 1008.1
20260906144529 64 62 0.0 1.7 0.00 0.00 0.00 56 1008.3
20260906143033 62 62 0.0 2.6 0.00 0.00 0.00 57 1008.2
20260906141529 60 62 0.0 2.6 0.00 0.00 0.00 58 1008.4
20260906140031 59 62 0.9 3.5 0.00 0.00 0.00 59 1008.4
20260906134520 57 62 1.7 3.5 0.00 0.00 0.00 61 1008.2
20260906133019 56 62 0.0 0.9 0.00 0.00 0.00 63 1008.0
20260906131531 56 63 0.0 0.0 0.00 0.00 0.00 62 1007.8
20260906130014 55 62 0.0 1.7 0.00 0.00 0.00 62 1007.8
20260906124511 55 62 1.7 5.2 0.00 0.00 0.00 61 1007.8
20260906123007 56 66 1.7 3.5 0.00 0.00 0.00 59 1007.6
20260906121507 56 66 0.0 4.3 0.00 0.00 0.00 58 1007.4
20260906120003 57 67 0.0 1.7 0.00 0.00 0.00 58 1007.1
20260906114602 57 67 0.0 0.9 0.00 0.00 0.00 57 1007.2
20260906113102 58 67 0.0 0.9 0.00 0.00 0.00 57 1007.1
20260906111609 58 67 0.0 1.7 0.00 0.00 0.00 56 1007.0
20260906110055 59 67 0.0 0.9 0.00 0.00 0.00 56 1007.0
20260906104552 59 67 0.0 0.9 0.00 0.00 0.00 56 1006.9
20260906103051 59 67 0.0 3.5 0.00 0.00 0.00 56 1007.0
20260906101549 60 128 0.9 3.5 0.00 0.00 0.00 54 1006.9
20260906100047 61 128 0.0 0.9 0.00 0.00 0.00 52 1006.9
20260906094544 61 128 0.9 2.6 0.00 0.00 0.00 50 1006.8
20260906093042 62 128 0.9 2.6 0.00 0.00 0.00 50 1006.8
20260906091540 63 128 0.0 0.9 0.00 0.00 0.00 49 1006.7
20260906090038 63 128 0.0 0.9 0.00 0.00 0.00 49 1006.6
20260906084546 64 128 0.0 1.7 0.00 0.00 0.00 48 1006.5
20260906083036 65 128 0.9 2.6 0.00 0.00 0.00 47 1006.7
20260906081530 66 129 0.9 2.6 0.00 0.00 0.00 42 1006.9
20260906080031 67 129 0.0 0.0 0.00 0.00 0.00 41 1006.8
20260906074524 67 129 0.0 1.7 0.00 0.00 0.00 39 1007.0
20260906073021 68 129 0.0 0.9 0.00 0.00 0.00 39 1006.8
20260906071519 68 129 0.0 1.7 0.00 0.00 0.00 39 1006.7
20260906070016 69 129 0.0 0.0 0.00 0.00 0.00 38 1006.6
20260906064514 70 129 0.0 0.0 0.00 0.00 0.00 37 1006.6
20260906063011 71 129 0.0 1.7 0.00 0.00 0.00 36 1006.5
20260906061507 72 129 0.0 1.7 0.00 0.00 0.00 36 1006.6
20260906060008 72 129 0.9 4.3 0.00 0.00 0.00 33 1006.7
20260906054503 72 181 1.7 5.2 0.00 0.00 0.00 32 1006.7
20260906053002 72 333 0.0 0.0 0.00 0.00 0.00 36 1006.7
20260906051501 73 333 0.0 0.0 0.00 0.00 0.00 37 1006.8
20260906050002 74 333 0.0 0.0 0.00 0.00 0.00 36 1006.8
20260906044503 75 333 0.0 0.0 0.00 0.00 0.00 37 1006.9
20260906043002 75 333 0.0 0.0 0.00 0.00 0.00 38 1007.0
20260906041610 75 333 0.0 0.0 0.00 0.00 0.00 37 1007.0
20260906040108 76 333 0.0 0.9 0.00 0.00 0.00 37 1007.2
20260906034559 76 333 0.0 1.7 0.00 0.00 0.00 37 1007.3
20260906033100 76 333 0.0 7.0 0.00 0.00 0.00 35 1007.4
20260906031601 75 360 6.1 11.3 0.00 0.00 0.00 38 1007.2
20260906030055 74 165 0.0 4.3 0.00 0.00 0.00 24 1006.3
20260906024611 75 164 0.9 6.1 0.00 0.00 0.00 24 1006.1
20260906023054 76 22 0.0 2.6 0.00 0.00 0.00 20 1005.7
20260906021553 78 22 0.0 0.0 0.00 0.00 0.00 19 1005.6
20260906020052 79 22 0.0 0.0 0.00 0.00 0.00 18 1005.5
20260906014602 81 22 0.0 0.9 0.00 0.00 0.00 17 1005.5
20260906013051 82 22 0.0 1.7 0.00 0.00 0.00 16 1005.4
20260906011550 83 22 0.0 0.0 0.00 0.00 0.00 15 1005.2
20260906010049 84 22 0.0 2.6 0.00 0.00 0.00 15 1005.2
20260906004549 84 336 0.0 7.0 0.00 0.00 0.00 15 1005.4
20260906003108 85 337 1.7 5.2 0.00 0.00 0.00 14 1005.4
20260906001549 85 337 1.7 3.5 0.00 0.00 0.00 14 1005.3
20260905234548 86 5 3.5 7.8 0.00 0.00 0.00 13 1005.2
20260905233047 86 360 3.5 11.3 0.00 0.00 0.00 14 1005.0
20260905231546 87 216 0.0 1.7 0.00 0.00 0.00 12 1005.1
20260905230046 88 216 0.0 2.6 0.00 0.00 0.00 12 1005.0
20260905224544 87 217 0.9 2.6 0.00 0.00 0.00 11 1004.9
20260905223044 87 216 0.0 1.7 0.00 0.00 0.00 11 1004.9
20260905221545 87 216 0.0 1.7 0.00 0.00 0.00 12 1005.0
20260905220045 88 216 0.0 4.3 0.00 0.00 0.00 12 1004.9